AirNav   Air Wisconsin pilot careers
 
 1096 users online  

12Y Le Sueur Municipal Airport
Le Sueur, Minnesota, USA

GOING TO LE SUEUR?


FAA INFORMATION EFFECTIVE 16 AUGUST 2018

Location

FAA Identifier: 12Y
Lat/Long: 44-26-27.1971N / 093-54-57.0502W
44-26.453285N / 093-54.950837W
44.4408881 / -93.9158473
(estimated)
Elevation: 867.5 ft. / 264.4 m (surveyed)
Variation: 04E (1985)
From city: 2 miles S of LE SUEUR, MN
Time zone: UTC -5 (UTC -6 during Standard Time)
Zip code: 56058

Airport Operations

Airport use: Open to the public
Activation date: 12/1945
Control tower: no
ARTCC: MINNEAPOLIS CENTER
FSS: PRINCETON FLIGHT SERVICE STATION
NOTAMs facility: PNM (NOTAM-D service available)
Attendance: MON-FRI 0800-1700
Pattern altitude: 1667.5 ft. MSL
Wind indicator: lighted
Segmented circle: no
Lights: MIRL RY 13/31 PRESET TO LOW; INCR INTST AND ACTVT PAPI RYS 13 & 31 AND REIL RYS 13 & 31 - 122.9.
Beacon: white-green (lighted land airport)
Operates sunset to sunrise.

Airport Communications

CTAF: 122.9
WX AWOS-3PT at MKT (13 nm S): 118.175 (507-625-3726)

Nearby radio navigation aids

VOR radial/distance  VOR name  Freq  Var
MKTr352/13.3MANKATO VOR/DME110.8007E
FOWr299/27.4HALFWAY VOR/DME111.2002E
FCMr220/30.7FLYING CLOUD VOR/DME117.7001E
FGTr244/33.4FARMINGTON VORTAC115.7006E
MSPr225/39.8MINNEAPOLIS VOR/DME115.3002E

 
NDB name  Hdg/Dist  Freq  Var  ID
GLENCOE156/20.540703EGYL --. -.-- .-..
ST JAMES044/38.726001EJYG .--- -.-- --.

Airport Services

Fuel available: 100LL
SELF SVC FUEL AVAIL 24 HRS WITH CREDIT CARD.
Parking: tiedowns
Airframe service: MINOR
Powerplant service: MINOR

Runway Information

Runway 13/31

Dimensions: 3000 x 75 ft. / 914 x 23 m
Surface: asphalt, in good condition
Runway edge lights: medium intensity
Gradient: SE.
RUNWAY 13  RUNWAY 31
Latitude: 44-26.628037N44-26.278532N
Longitude: 093-55.194207W093-54.707465W
Elevation: 838.2 ft.867.4 ft.
Gradient: 1.0% UP1.0%
Traffic pattern: leftleft
Markings: nonprecision, in good conditionnonprecision, in good condition
Visual slope indicator: 4-light PAPI on left (2.75 degrees glide path)4-light PAPI on left (2.75 degrees glide path)
Runway end identifier lights: yesyes
Touchdown point: yes, no lightsyes, no lights
Obstructions: 22 ft. trees, 415 ft. from runway, 104 ft. left of centerline, 9:1 slope to clearnone

Airport Ownership and Management from official FAA records

Ownership: Publicly-owned
Owner: CITY OF LE SUEUR
203 S 2ND ST, BOX 176
LE SUEUR, MN 56058
Phone 507-665-6401
Manager: ANDREW CEMENSKI
505 BORIGHT ST., BOX 176
LE SUEUR, MN 56058
Phone (507) 593-8351

Airport Operational Statistics

Aircraft based on the field: 41
Single engine airplanes: 23
Helicopters: 18
    
Aircraft operations: avg 49/week *
59% local general aviation
39% transient general aviation
2% military
* for 12-month period ending 30 April 2016

Additional Remarks

DEER ON AND INVOF ARPT.
RY 13 END NOT VISIBLE FM RY 31 END.

Instrument Procedures

There are no published instrument procedures at 12Y.

Some nearby airports with instrument procedures:

KMKT - Mankato Regional Airport (13 nm S)
KGYL - Glencoe Municipal Airport (20 nm N)
KULM - New Ulm Municipal Airport (26 nm W)
KFBL - Faribault Municipal Airport-Liz Wall Strohfus Field (27 nm E)
KACQ - Waseca Municipal Airport (27 nm SE)
 
Loc | Ops | Rwys | IFR | FBO | Links
Com | Nav | Svcs | Stats | Notes


 
Area around 12Y (Le Sueur Municipal Airport)
 
Road maps at: MapQuest Bing Google
 
Aerial photo
WARNING: Photo may not be current or correct
Aerial photo of 12Y (Le Sueur Municipal Airport)
Photo taken 20-Oct-2007
from 3500 feet

Do you have a better or more recent aerial photo of Le Sueur Municipal Airport that you would like to share? If so, please send us your photo.

 
Sectional chart

 
Airport distance calculator
Flying to Le Sueur Municipal Airport? Find the distance to fly.

From to 12Y

Sunrise and sunset
Times for 18-Aug-2018
 Local
(UTC-5)
 Zulu
(UTC)
Morning civil twilight05:5210:52
Sunrise06:2311:23
Sunset20:1601:16
Evening civil twilight20:4701:47

Current date and time
Zulu (UTC)  18-Aug-2018 14:58:16
Local (UTC-5)  18-Aug-2018 09:58:16
 
METAR
KMKT 
13nm S 
181356Z AUTO 00000KT 5SM BR CLR 19/19 A3011 RMK AO2 SLP193 T01940194
KGYL 
20nm N 
181455Z AUTO 00000KT 7SM CLR 22/21 A3009 RMK AO2 T02240205
KULM 
26nm W 
181455Z AUTO 14005KT 10SM CLR 21/19 A3009 RMK AO2
KFBL 
27nm E 
181455Z AUTO 00000KT 10SM CLR 22/19 A3010 RMK AO2
TAF
KMKT 
13nm S 
181123Z 1812/1912 VRB02KT 4SM BR SKC TEMPO 1812/1813 1/4SM FG BKN002 FM181330 15004KT P6SM FEW250 FM191000 15005KT 4SM BR SKC
NOTAMs
Click for the latest NOTAMs
NOTAMs are issued by the DoD/FAA and will open in a separate window not controlled by AirNav.

 

 
 

FBO, Fuel Providers, and Aircraft Ground Support

  
 Business Name 
 
 Contact 
 
 Services / Description 
 
Fuel Prices
 
Comments
  
City of Le Sueur 507-665-2266
no information available

If you are affiliated with City of Le Sueur and would like to show here your services, contact info, web link, logo, and more, click here
100LL
SS $4.65 
 Updated 07-Aug-2018
 
   write
SS=Self service
Update Fuel Prices
 

Would you like to see your business listed on this page?

 If your business provides an interesting product or service to pilots, flight crews, aircraft, or users of the Le Sueur Municipal Airport, you should consider listing it here.  To start the listing process, click on the button below
 
Add a business
 

Other Pages about Le Sueur Municipal Airport

Update a link
 
Copyright © AirNav, LLC. All rights reserved. Privacy Policy  Contact